Precipitable_Water
0.69 0.55 0.40 0.41 0.41 0.39 0.38 0.32 0.29 0.31 0.39 0.33 0.31 0.32 0.32 0.35 0.35 0.33 0.33 0.33 0.34 0.37 0.41 0.42 0.43 0.45 0.46 0.50 0.54 0.57 0.58 0.61 0.69 0.86 1.03 1.03 1.00 1.05 1.11 1.18 1.25 1.28 1.31 1.34
0.56 0.44 0.52 0.55 0.49 0.41 0.35 0.30 0.29 0.36 0.39 0.36 0.34 0.30 0.32 0.34 0.34 0.36 0.34 0.33 0.33 0.34 0.34 0.36 0.38 0.40 0.42 0.43 0.45 0.48 0.53 0.56 0.58 0.65 0.84 0.97 1.05 1.11 1.12 1.11 1.16 1.23 1.24 1.25
0.48 0.51 0.58 0.53 0.46 0.38 0.36 0.31 0.31 0.30 0.35 0.37 0.33 0.26 0.28 0.31 0.32 0.32 0.33 0.33 0.34 0.35 0.36 0.39 0.40 0.41 0.42 0.41 0.43 0.45 0.47 0.50 0.52 0.55 0.65 0.83 0.96 1.00 0.97 0.99 1.00 1.04 1.17 1.21
0.54 0.61 0.52 0.45 0.42 0.43 0.32 0.42 0.38 0.33 0.31 0.23 0.31 0.19 0.26 0.27 0.27 0.30 0.32 0.34 0.36 0.37 0.39 0.42 0.43 0.44 0.46 0.48 0.50 0.48 0.46 0.48 0.52 0.57 0.57 0.63 0.71 0.70 0.77 0.83 0.93 1.02 1.09 1.17
0.49 0.53 0.51 0.44 0.41 0.47 0.37 0.41 0.37 0.36 0.32 0.31 0.28 0.22 0.23 0.26 0.25 0.29 0.33 0.36 0.37 0.40 0.42 0.42 0.45 0.46 0.48 0.50 0.50 0.51 0.50 0.48 0.46 0.49 0.55 0.63 0.73 0.81 0.85 0.88 0.90 0.91 0.95 0.98
0.55 0.70 0.64 0.55 0.53 0.52 0.48 0.40 0.39 0.38 0.35 0.24 0.28 0.24 0.21 0.21 0.24 0.28 0.31 0.34 0.38 0.41 0.43 0.45 0.49 0.49 0.48 0.50 0.50 0.51 0.50 0.50 0.50 0.48 0.46 0.50 0.59 0.76 0.82 0.88 0.90 0.95 1.00 0.98
0.52 0.53 0.63 0.65 0.52 0.53 0.47 0.38 0.27 0.25 0.25 0.22 0.27 0.23 0.22 0.24 0.27 0.29 0.30 0.33 0.38 0.41 0.43 0.45 0.46 0.48 0.49 0.49 0.49 0.48 0.47 0.46 0.50 0.50 0.50 0.49 0.49 0.57 0.68 0.79 0.84 0.87 0.91 0.94
0.38 0.35 0.52 0.61 0.56 0.49 0.49 0.44 0.30 0.19 0.18 0.20 0.27 0.19 0.21 0.28 0.30 0.32 0.33 0.35 0.40 0.42 0.46 0.48 0.51 0.53 0.54 0.55 0.55 0.52 0.51 0.50 0.51 0.52 0.54 0.56 0.57 0.56 0.57 0.67 0.78 0.83 0.88 0.92
0.37 0.38 0.56 0.58 0.59 0.59 0.48 0.41 0.44 0.30 0.27 0.22 0.21 0.22 0.25 0.28 0.27 0.31 0.32 0.36 0.39 0.44 0.49 0.53 0.56 0.57 0.59 0.60 0.60 0.61 0.61 0.59 0.59 0.61 0.61 0.64 0.64 0.64 0.64 0.67 0.72 0.77 0.81 0.83
0.44 0.35 0.48 0.49 0.54 0.53 0.48 0.50 0.36 0.36 0.24 0.19 0.19 0.18 0.16 0.21 0.25 0.29 0.33 0.37 0.42 0.48 0.55 0.57 0.60 0.61 0.64 0.65 0.66 0.68 0.69 0.66 0.66 0.66 0.67 0.67 0.68 0.69 0.69 0.71 0.71 0.75 0.78 0.80
0.44 0.38 0.39 0.45 0.41 0.39 0.40 0.37 0.37 0.37 0.29 0.18 0.14 0.15 0.22 0.23 0.27 0.31 0.36 0.43 0.48 0.54 0.58 0.60 0.61 0.63 0.64 0.64 0.65 0.62 0.61 0.62 0.62 0.63 0.65 0.67 0.67 0.66 0.67 0.69 0.73 0.76 0.79 0.82
0.42 0.37 0.31 0.34 0.44 0.46 0.42 0.37 0.34 0.26 0.24 0.26 0.21 0.18 0.29 0.30 0.33 0.36 0.41 0.49 0.55 0.60 0.61 0.61 0.62 0.61 0.61 0.59 0.60 0.59 0.61 0.62 0.62 0.61 0.58 0.58 0.62 0.65 0.64 0.64 0.66 0.73 0.79 0.83
0.40 0.32 0.24 0.27 0.35 0.41 0.35 0.36 0.37 0.33 0.31 0.24 0.19 0.18 0.33 0.35 0.38 0.44 0.50 0.55 0.57 0.61 0.61 0.60 0.61 0.61 0.61 0.59 0.59 0.59 0.59 0.59 0.60 0.59 0.57 0.58 0.63 0.66 0.68 0.71 0.72 0.77 0.78 0.77
0.42 0.32 0.25 0.20 0.23 0.31 0.28 0.32 0.35 0.33 0.25 0.23 0.20 0.22 0.30 0.33 0.42 0.51 0.55 0.58 0.61 0.61 0.59 0.59 0.57 0.59 0.60 0.58 0.58 0.59 0.59 0.59 0.57 0.56 0.55 0.56 0.59 0.62 0.63 0.64 0.71 0.75 0.78 0.76
0.38 0.28 0.30 0.29 0.30 0.31 0.31 0.30 0.31 0.27 0.28 0.22 0.24 0.25 0.31 0.42 0.48 0.52 0.56 0.59 0.58 0.57 0.55 0.56 0.56 0.57 0.58 0.58 0.60 0.61 0.62 0.62 0.62 0.59 0.57 0.55 0.58 0.60 0.63 0.62 0.66 0.73 0.78 0.76
0.38 0.29 0.32 0.27 0.30 0.29 0.27 0.31 0.32 0.31 0.30 0.29 0.30 0.30 0.44 0.51 0.53 0.52 0.55 0.56 0.55 0.53 0.54 0.57 0.58 0.59 0.60 0.61 0.62 0.64 0.65 0.66 0.65 0.62 0.57 0.58 0.58 0.60 0.61 0.63 0.64 0.69 0.73 0.75
0.33 0.29 0.27 0.21 0.28 0.29 0.23 0.27 0.29 0.31 0.33 0.32 0.30 0.40 0.50 0.49 0.49 0.51 0.54 0.55 0.55 0.54 0.55 0.56 0.58 0.60 0.62 0.64 0.66 0.66 0.68 0.71 0.69 0.66 0.63 0.61 0.62 0.65 0.65 0.62 0.63 0.66 0.67 0.71
0.33 0.31 0.29 0.23 0.27 0.17 0.28 0.40 0.39 0.35 0.37 0.41 0.44 0.48 0.52 0.51 0.54 0.57 0.59 0.59 0.57 0.56 0.56 0.56 0.57 0.59 0.62 0.66 0.67 0.69 0.70 0.70 0.68 0.67 0.68 0.69 0.70 0.70 0.71 0.69 0.62 0.66 0.71 0.72
0.40 0.35 0.29 0.24 0.23 0.26 0.31 0.38 0.41 0.40 0.39 0.50 0.51 0.54 0.55 0.56 0.57 0.55 0.61 0.66 0.62 0.60 0.58 0.59 0.60 0.60 0.61 0.63 0.67 0.68 0.68 0.68 0.67 0.65 0.67 0.69 0.71 0.70 0.71 0.71 0.70 0.69 0.74 0.74
0.40 0.39 0.31 0.28 0.21 0.18 0.32 0.45 0.55 0.55 0.40 0.59 0.60 0.58 0.56 0.55 0.43 0.50 0.61 0.66 0.66 0.65 0.63 0.61 0.62 0.62 0.62 0.63 0.66 0.66 0.65 0.65 0.64 0.66 0.67 0.68 0.70 0.70 0.70 0.70 0.70 0.72 0.72 0.72
0.31 0.32 0.27 0.27 0.24 0.26 0.37 0.53 0.60 0.38 0.43 0.63 0.64 0.62 0.58 0.51 0.54 0.61 0.65 0.65 0.69 0.68 0.66 0.66 0.65 0.63 0.63 0.65 0.66 0.64 0.65 0.64 0.67 0.67 0.66 0.66 0.67 0.66 0.67 0.68 0.69 0.69 0.69 0.69
0.30 0.28 0.27 0.29 0.24 0.19 0.41 0.50 0.44 0.56 0.63 0.69 0.66 0.64 0.60 0.60 0.60 0.63 0.65 0.65 0.69 0.68 0.68 0.68 0.66 0.65 0.67 0.67 0.65 0.61 0.60 0.64 0.65 0.65 0.63 0.62 0.62 0.61 0.60 0.57 0.55 0.52 0.46 0.38
0.27 0.34 0.30 0.31 0.30 0.40 0.48 0.49 0.60 0.66 0.65 0.67 0.67 0.68 0.65 0.61 0.61 0.62 0.65 0.68 0.70 0.70 0.70 0.70 0.67 0.67 0.69 0.69 0.65 0.57 0.56 0.56 0.55 0.51 0.47 0.43 0.40 0.36 0.33 0.30 0.29 0.28 0.27 0.26
0.39 0.44 0.36 0.37 0.38 0.42 0.49 0.57 0.59 0.62 0.64 0.68 0.69 0.69 0.69 0.63 0.63 0.62 0.65 0.69 0.71 0.71 0.71 0.71 0.69 0.67 0.67 0.69 0.67 0.57 0.52 0.50 0.45 0.37 0.35 0.33 0.30 0.29 0.29 0.28 0.27 0.25 0.24 0.22
0.39 0.43 0.39 0.37 0.43 0.47 0.51 0.54 0.58 0.60 0.64 0.66 0.67 0.68 0.67 0.65 0.64 0.64 0.64 0.69 0.72 0.70 0.72 0.71 0.70 0.68 0.69 0.70 0.65 0.55 0.49 0.43 0.37 0.35 0.32 0.29 0.29 0.28 0.27 0.26 0.25 0.23 0.22 0.22
0.41 0.39 0.37 0.35 0.46 0.46 0.48 0.54 0.58 0.56 0.58 0.61 0.62 0.63 0.67 0.66 0.64 0.66 0.64 0.68 0.70 0.70 0.71 0.71 0.71 0.70 0.70 0.68 0.65 0.56 0.47 0.41 0.38 0.32 0.29 0.29 0.29 0.29 0.29 0.27 0.26 0.27 0.26 0.25
Wind_Speed
31 25 31 34 33 24 26 29 25 24 23 24 27 27 26 25 26 26 27 27 27 27 26 28 29 30 31 32 33 34 34 35 35 36 36 37 37 37 37 38 38 38 38 38
25 28 28 28 29 26 27 26 24 20 21 22 22 24 25 25 26 25 24 25 25 25 24 25 27 29 30 32 34 35 35 36 37 37 38 39 39 39 39 39 39 39 40 39
25 24 26 28 27 25 24 24 22 18 19 19 20 22 20 18 17 18 19 19 19 19 20 20 21 23 26 28 30 33 34 36 36 38 38 39 40 40 40 41 41 41 42 42
20 19 26 28 27 26 22 19 19 18 18 18 16 16 16 17 16 15 15 16 17 17 18 18 19 20 21 23 25 27 30 33 35 36 37 38 39 40 41 43 44 44 44 45
14 20 25 27 28 25 19 20 17 16 16 16 16 16 14 17 16 16 15 14 15 16 18 19 19 20 21 22 22 23 24 26 29 33 36 37 38 38 38 40 42 43 45 47
13 14 14 17 18 22 20 17 14 15 16 17 16 16 16 18 17 18 16 15 15 16 16 17 18 19 20 21 22 23 24 25 26 27 30 35 39 39 39 40 40 41 41 43
12 13 13 15 16 16 21 20 15 16 16 16 15 16 14 17 15 17 15 13 15 16 16 17 18 19 21 22 24 25 26 27 28 29 29 31 35 38 41 42 42 43 43 43
10 11 9 13 14 16 18 18 16 15 16 15 15 17 14 16 16 17 15 13 14 15 16 17 19 21 23 25 26 27 28 30 30 31 32 33 34 36 38 41 43 44 45 45
10 9 10 12 14 15 15 16 14 12 12 14 14 15 15 15 16 18 16 15 14 15 17 19 21 22 24 25 26 28 29 30 31 32 33 34 34 36 37 39 41 42 44 44
11 10 10 11 11 8 11 13 12 13 13 14 13 14 12 15 16 16 14 14 15 17 18 20 21 23 24 24 24 25 26 27 29 30 31 33 34 36 37 39 41 43 44 44
11 9 11 12 12 13 12 12 10 11 11 11 10 10 12 16 15 14 13 15 16 17 19 20 22 22 22 22 22 22 23 24 25 25 26 28 29 32 36 39 42 44 45 44
9 8 10 11 11 12 13 13 14 12 12 11 9 10 12 13 13 14 15 16 16 17 18 18 18 18 19 19 20 21 22 22 22 23 24 26 28 32 34 35 37 38 41 42
12 9 9 10 12 13 14 15 15 12 10 13 12 9 12 13 12 14 15 14 14 14 14 15 16 16 17 19 19 19 19 19 20 20 22 24 27 30 32 32 30 30 30 32
9 9 8 9 8 10 13 16 17 14 12 12 15 9 11 12 12 11 11 11 11 11 13 14 15 16 16 16 17 17 17 18 18 20 22 22 24 26 26 24 27 26 26 25
9 8 8 8 8 9 9 12 17 17 16 13 10 13 13 12 11 10 10 8 9 11 13 14 14 14 14 14 14 14 15 15 18 19 18 19 21 22 22 20 20 21 21 22
8 8 8 8 8 11 12 14 15 17 18 18 18 17 15 11 9 8 8 8 8 9 11 11 12 12 12 13 13 13 13 15 16 15 14 15 16 17 17 16 15 13 11 12
9 9 8 8 7 8 11 17 18 15 15 17 15 15 12 10 8 8 7 6 7 9 10 11 11 11 11 12 13 13 13 13 12 12 13 13 13 14 13 12 11 9 8 6
9 8 8 6 7 8 6 7 9 17 15 18 15 14 12 10 9 8 6 5 6 8 9 10 10 11 11 12 11 10 10 9 10 9 11 11 10 10 10 10 8 7 6 5
9 8 7 7 8 9 8 9 9 9 11 16 16 14 11 9 8 8 6 5 5 6 8 8 10 10 10 9 8 7 7 7 7 7 9 9 8 8 8 8 8 6 5 3
10 11 10 8 8 8 5 8 9 8 8 11 13 12 9 7 8 6 6 5 5 5 6 7 8 9 9 8 7 6 5 6 6 6 7 8 8 8 8 7 7 7 7 6
11 11 14 13 11 10 10 9 8 10 9 11 12 11 9 8 8 7 7 6 5 5 6 7 8 8 7 6 6 5 5 6 7 7 8 9 10 11 11 12 12 11 11 9
14 13 12 14 12 12 10 10 10 8 9 9 11 10 9 9 8 9 8 7 6 5 6 7 7 6 5 4 4 3 3 4 5 6 7 8 8 8 8 8 8 8 7 6
13 14 12 14 12 10 11 11 10 10 11 10 10 10 10 9 9 9 9 9 8 6 6 7 7 6 5 4 3 2 1 2 3 4 5 6 6 7 7 6 6 5 5 5
15 14 13 13 15 17 13 14 12 12 13 13 13 13 12 12 11 11 11 11 9 8 8 7 7 6 5 4 3 2 1 0 1 3 4 4 5 5 6 5 5 5 5 6
13 14 16 17 18 15 15 16 14 14 15 16 16 16 16 14 13 13 12 12 12 10 10 9 8 7 6 5 4 3 3 2 0 1 3 4 5 5 5 6 6 6 7 7
15 14 14 13 14 16 15 15 15 17 17 17 18 19 18 17 16 15 14 14 13 13 11 10 9 7 7 6 5 5 4 4 3 2 3 4 4 5 5 6 6 8 8 9
Wind_Direction
193 194 198 199 204 213 206 208 212 217 216 223 228 233 236 240 243 243 244 246 247 249 251 252 253 253 253 254 255 255 256 256 256 256 256 256 255 256 256 255 254 253 253 252
189 201 198 196 199 204 203 205 209 210 215 223 227 236 239 241 243 244 245 246 248 251 252 254 256 256 256 256 257 257 257 257 257 257 257 257 257 257 257 256 255 254 253 253
188 192 189 194 197 198 204 205 205 212 213 222 235 237 229 231 231 236 237 238 240 245 251 256 258 258 259 261 261 260 260 260 260 259 259 258 257 258 257 256 256 256 255 254
185 189 191 194 198 199 201 204 203 208 217 223 228 227 226 223 225 225 228 234 240 245 251 256 259 262 265 266 267 267 265 263 261 260 260 258 258 258 258 258 258 257 256 255
181 189 189 195 198 202 206 203 204 212 218 227 222 231 221 216 218 222 228 236 243 249 254 258 263 265 268 269 271 271 271 270 267 264 261 260 260 261 261 260 259 259 257 256
178 174 184 194 190 200 191 196 204 215 222 228 223 232 221 224 223 220 230 242 247 252 257 261 265 268 271 273 274 274 274 274 274 272 268 263 262 262 263 262 261 261 260 258
157 169 175 180 181 198 204 197 209 218 222 229 225 230 240 219 224 221 226 246 251 255 260 265 271 274 275 276 277 276 276 276 275 275 274 271 268 265 264 264 263 262 261 259
152 163 170 181 185 193 195 205 217 217 219 222 226 234 232 220 226 220 231 252 254 259 266 271 274 278 279 280 279 279 279 278 278 277 276 275 273 271 269 267 266 264 263 261
162 159 164 179 178 184 194 208 213 211 221 229 223 232 234 228 224 220 236 256 261 266 271 277 280 282 284 283 282 281 281 281 279 278 277 276 276 275 274 272 270 267 264 262
176 169 179 179 185 183 200 189 205 218 216 227 223 231 222 211 209 217 248 262 269 272 277 281 285 287 286 285 285 284 284 285 284 282 279 278 278 278 277 275 272 269 266 264
180 188 192 199 206 201 202 208 211 213 223 227 226 219 217 205 212 230 265 271 275 277 282 285 289 289 288 286 286 287 288 289 287 286 284 283 283 283 282 279 276 271 267 263
202 194 197 207 213 220 223 222 219 224 216 222 229 223 215 215 232 254 271 275 279 281 286 289 291 292 291 289 289 289 291 292 291 290 289 289 290 291 288 286 283 275 268 261
203 207 202 214 224 223 226 222 223 218 223 219 222 218 221 222 246 264 269 277 281 284 289 293 294 294 294 294 292 289 292 293 293 294 296 298 299 300 296 289 285 281 273 265
201 202 219 215 213 211 222 220 217 216 218 214 222 226 213 243 259 265 273 281 283 291 297 297 296 297 297 296 296 294 294 296 297 300 301 303 308 310 308 298 287 283 274 268
211 212 216 219 217 215 218 214 211 215 216 217 220 226 241 252 255 264 273 278 289 299 306 304 300 298 298 300 304 302 300 300 305 307 307 310 314 315 313 307 302 291 277 267
214 211 217 222 220 226 230 225 218 219 224 233 239 252 249 243 244 257 273 284 294 308 321 324 319 313 304 304 305 306 307 308 310 313 315 318 323 328 328 320 317 310 297 270
205 204 211 219 222 235 237 228 220 220 221 224 227 226 229 242 251 261 270 281 302 318 325 328 326 322 314 307 303 302 307 311 318 317 321 320 325 334 337 337 334 328 318 294
197 197 204 217 223 225 225 212 218 223 226 221 227 229 234 246 256 253 258 270 298 325 335 338 340 330 320 314 306 311 313 317 326 326 330 332 334 338 349 354 349 357 354 339
206 202 207 222 230 258 241 221 211 212 217 215 218 225 237 245 250 246 243 265 296 327 332 336 341 342 341 336 333 318 320 329 337 343 348 351 351 359 4 11 20 23 15 29
214 223 221 217 235 238 237 214 213 220 208 196 205 219 236 244 244 243 235 257 289 315 330 334 338 343 345 351 354 5 10 12 12 13 17 17 24 26 26 37 38 45 56 68
218 224 227 230 242 253 233 211 213 221 207 213 218 228 236 241 251 243 238 254 277 304 322 326 335 338 340 348 359 13 25 34 42 47 47 48 51 51 56 61 64 68 71 74
222 225 228 230 235 246 222 215 227 216 211 223 220 227 239 250 252 244 241 247 261 283 304 315 322 326 331 339 356 9 26 40 51 53 51 48 46 47 51 56 56 57 57 58
233 232 232 230 236 238 225 232 223 225 228 231 229 235 244 253 253 246 243 246 255 268 287 306 312 308 305 309 324 353 9 44 49 49 44 41 41 41 41 41 38 33 28 21
240 233 240 236 239 237 234 229 236 239 235 235 242 248 250 254 255 250 246 247 252 260 271 289 302 292 289 274 281 285 268 322 44 39 36 30 23 19 14 10 7 2 355 346
242 229 237 244 242 241 236 237 240 243 246 250 252 251 253 253 253 251 249 248 250 255 261 273 285 282 259 256 259 252 240 233 268 7 6 2 360 1 2 1 355 349 344 337
237 237 235 244 237 235 236 236 247 253 254 255 257 256 252 250 252 250 252 249 249 250 255 262 272 264 246 244 244 240 235 239 251 291 323 333 339 342 344 345 345 345 338 333